Main page
METAR-TAF:

METAR-TAF

Airports :

Wilbarger County Airport

Vernon, Texas, United States

latitude: 34-13-32N, longitude: 099-17-01W, elevation: 1266 ft

Current weather observation

The report was made 23 minutes ago, at 19:55 UTC
Wind 7 mph from the Northeast
Temperature 70°F
Humidity 40%
Pressure 30.33 in. Hg
Visibility: 10 miles
Clear sky

METAR: KF05 201955Z AUTO 05006KT 10SM CLR 21/07 A3033 RMK AO1 T02060072

Time: 15:18 (20:18 UTC)


TAF: missing

Weather observations and forecasts of more than 4000 airports (METAR and TAF reports).

The available stations are represented by yellow and red dots on the map.

Hover mouse over dot to see the name of the station.

Then click to see weather observations and forecasts.

To change the map : click on the green buttons with a black cross to zoom in, on the green button with a dash to zoom out, or on the green arrows for adjacent maps.


METAR-TAF: